Location: Fort Wayne
(41.1310°N, 85.1290°W)
Time: 12:26:00
(UTC-04:00)

Courier 1B Rocket - All Passes

Search period start: 23 May 2015 00:00
Search period end: 02 June 2015 00:00
Orbit: 920 x 1202 km, 28.3° (Epoch: 22 May)

Date Brightness Start Highest point End Pass type
(mag) Time Alt. Az. Time Alt. Az. Time Alt. Az.
23 May - 12:34:19 10° S 12:37:32 13° SSE 12:41:00 10° SE daylight
23 May - 14:24:10 10° SW 14:30:18 26° SSE 14:36:21 10° ESE daylight
23 May - 16:16:42 10° WSW 16:23:13 30° S 16:29:28 10° SE daylight
23 May - 18:10:29 10° WSW 18:16:00 22° SSW 18:21:12 10° SSE daylight
24 May - 13:23:44 10° SSW 13:29:22 22° SSE 13:35:03 10° ESE daylight
24 May - 15:15:40 10° SW 15:22:16 30° S 15:28:40 10° ESE daylight
24 May - 17:09:01 10° WSW 17:15:09 26° SSW 17:20:59 10° SE daylight
24 May - 19:04:22 10° SW 19:07:45 13° SSW 19:10:49 10° S daylight
25 May - 12:23:41 10° SSW 12:28:28 18° SSE 12:33:25 10° ESE daylight
25 May - 14:14:49 10° SW 14:21:18 29° S 14:27:42 10° ESE daylight
25 May - 16:07:44 10° WSW 16:14:14 29° S 16:20:29 10° SE daylight
25 May - 18:02:05 10° WSW 18:06:59 18° SSW 18:11:35 10° SSE daylight
26 May - 11:24:21 10° S 11:27:36 13° SSE 11:31:07 10° SE daylight
26 May - 13:14:10 10° SW 13:20:20 26° SSE 13:26:33 10° ESE daylight
26 May - 15:06:37 10° WSW 15:13:17 31° S 15:19:47 10° ESE daylight
26 May - 17:00:21 10° WSW 17:06:08 23° SSW 17:11:39 10° SSE daylight
27 May - 12:13:48 10° SSW 12:19:24 22° SSE 12:25:10 10° ESE daylight
27 May - 14:05:39 10° SW 14:12:18 31° S 14:18:54 10° ESE daylight
27 May - 15:58:56 10° WSW 16:05:14 27° SSW 16:11:20 10° SE daylight
27 May - 17:54:10 10° SW 17:57:55 14° SSW 18:01:21 10° S daylight
28 May - 11:13:50 10° SSW 11:18:31 18° SSE 11:23:27 10° ESE daylight
28 May - 13:04:53 10° SW 13:11:19 29° S 13:17:50 10° ESE daylight
28 May - 14:57:42 10° WSW 15:04:17 30° S 15:10:44 10° SE daylight
28 May - 16:51:58 10° WSW 16:57:05 19° SSW 17:01:57 10° SSE daylight
29 May - 10:14:38 10° S 10:17:41 13° SSE 10:21:02 10° SE daylight
29 May - 12:04:18 10° SW 12:10:21 26° SSE 12:16:36 10° ESE daylight
29 May - 13:56:40 10° WSW 14:03:18 31° S 14:09:56 10° ESE daylight
29 May - 15:50:18 10° WSW 15:56:12 23° SSW 16:01:55 10° SSE daylight
30 May - 11:04:02 10° SSW 11:09:27 22° SSE 11:15:08 10° ESE daylight
30 May - 12:55:47 10° SW 13:02:18 31° S 13:08:58 10° ESE daylight
30 May - 14:48:57 10° WSW 14:55:16 27° SSW 15:01:30 10° SE daylight
30 May - 16:44:05 10° SW 16:48:01 14° SSW 16:51:40 10° S daylight
31 May - 10:04:11 10° SSW 10:08:37 17° SSE 10:13:21 10° ESE daylight
31 May - 11:55:05 10° SW 12:01:21 29° S 12:07:50 10° ESE daylight
31 May - 13:47:48 10° WSW 13:54:18 30° S 14:00:50 10° SE daylight
31 May - 15:41:58 10° WSW 15:47:08 19° SSW 15:52:09 10° SSE daylight
01 Jun - 09:05:10 10° S 09:07:50 12° SSE 09:10:49 10° SE daylight
01 Jun - 10:54:37 10° SW 11:00:26 26° SSE 11:06:31 10° ESE daylight
01 Jun - 12:46:51 10° WSW 12:53:19 31° S 12:59:57 10° ESE daylight
01 Jun - 14:40:23 10° WSW 14:46:14 23° SSW 14:52:01 10° SSE daylight
